�������l�o���
Date,Time,MP-1(��Sv/h),MP-2(��Sv/h),MP-3(��Sv/h),MP-4(��Sv/h),MP-5(��Sv/h),MP-6(��Sv/h),MP-7(��Sv/h),MP-8(��Sv/h),����,����(m/s),���J
2018/11/05,00:00,0.798,1.206,0.845,1.505,1.099,0.462,0.812,0.768,��,3.6,��
2018/11/05,00:10,0.798,1.203,0.846,1.507,1.098,0.462,0.811,0.770,��,3.4,�L
2018/11/05,00:20,0.798,1.206,0.845,1.508,1.099,0.461,0.814,0.771,��,3.8,��
2018/11/05,00:30,0.797,1.207,0.845,1.510,1.097,0.462,0.812,0.768,��,3.2,��
2018/11/05,00:40,0.797,1.208,0.847,1.508,1.099,0.463,0.813,0.770,��,2.8,�L
2018/11/05,00:50,0.796,1.205,0.847,1.506,1.099,0.462,0.814,0.768,��,2.8,�L
2018/11/05,01:00,0.797,1.205,0.847,1.506,1.099,0.462,0.812,0.771,��,3.2,�L
2018/11/05,01:10,0.798,1.205,0.844,1.507,1.098,0.462,0.815,0.769,��쓌,4.0,�L
2018/11/05,01:20,0.796,1.205,0.845,1.507,1.098,0.463,0.812,0.770,��,4.2,�L
2018/11/05,01:30,0.798,1.205,0.847,1.504,1.099,0.462,0.814,0.769,��쓌,5.0,�L
2018/11/05,01:40,0.797,1.207,0.845,1.506,1.097,0.461,0.813,0.770,��쓌,4.2,��
2018/11/05,01:50,0.800,1.202,0.846,1.507,1.098,0.463,0.813,0.770,��쓌,3.6,�L
2018/11/05,02:00,0.799,1.206,0.844,1.507,1.097,0.461,0.812,0.769,��,4.5,�L
2018/11/05,02:10,0.797,1.208,0.846,1.509,1.097,0.461,0.813,0.770,��,3.6,��
2018/11/05,02:20,0.798,1.207,0.846,1.507,1.098,0.462,0.814,0.768,��쐼,2.3,��
2018/11/05,02:30,0.799,1.206,0.847,1.508,1.096,0.461,0.813,0.770,��쐼,2.3,��
2018/11/05,02:40,0.798,1.207,0.844,1.505,1.098,0.461,0.813,0.768,��쐼,2.3,�L
2018/11/05,02:50,0.799,1.204,0.846,1.507,1.097,0.461,0.813,0.768,�쐼,1.9,�L
2018/11/05,03:00,0.796,1.207,0.846,1.504,1.097,0.462,0.811,0.769,�쐼,1.7,�L
2018/11/05,03:10,0.795,1.202,0.840,1.503,1.088,0.462,0.810,0.768,���k��,1.5,�L
2018/11/05,03:20,0.791,1.192,0.840,1.498,1.083,0.461,0.808,0.766,�k��,1.5,�L
2018/11/05,03:30,0.792,1.189,0.837,1.492,1.079,0.461,0.807,0.768,��,1.5,�L
2018/11/05,03:40,0.791,1.191,0.839,1.491,1.079,0.460,0.806,0.764,��,1.7,�L
2018/11/05,03:50,0.787,1.187,0.837,1.493,1.076,0.460,0.805,0.763,���쐼,1.1,�L
2018/11/05,04:00,0.785,1.183,0.835,1.490,1.076,0.461,0.805,0.763,�쐼,1.2,�L
2018/11/05,04:10,0.786,1.185,0.836,1.491,1.077,0.459,0.805,0.764,��쓌,0.8,��
2018/11/05,04:20,0.786,1.186,0.835,1.488,1.076,0.459,0.806,0.763,�k��,0.9,��
2018/11/05,04:30,0.786,1.185,0.835,1.489,1.076,0.459,0.806,0.763,�k�k��,1.5,��
2018/11/05,04:40,0.785,1.184,0.836,1.489,1.077,0.458,0.805,0.765,�k�k��,1.7,��
2018/11/05,04:50,0.785,1.185,0.834,1.491,1.078,0.458,0.806,0.764,�k�k��,2.0,��
2018/11/05,05:00,0.784,1.183,0.835,1.488,1.078,0.459,0.805,0.764,�k�k��,2.8,��
2018/11/05,05:10,0.785,1.185,0.836,1.490,1.076,0.458,0.806,0.766,�k�k��,3.5,��
2018/11/05,05:20,0.786,1.185,0.835,1.490,1.077,0.458,0.807,0.766,�k,4.5,��
2018/11/05,05:30,0.787,1.183,0.834,1.488,1.074,0.458,0.807,0.766,�k,4.2,��
2018/11/05,05:40,0.786,1.185,0.836,1.488,1.075,0.457,0.806,0.765,�k,4.5,��
2018/11/05,05:50,0.784,1.183,0.834,1.492,1.077,0.458,0.804,0.765,�k,5.3,��
2018/11/05,06:00,0.786,1.182,0.835,1.489,1.075,0.458,0.806,0.766,�k�k��,5.3,��
2018/11/05,06:10,0.782,1.185,0.837,1.487,1.076,0.457,0.805,0.765,�k�k��,5.6,��
2018/11/05,06:20,0.783,1.184,0.834,1.490,1.074,0.457,0.804,0.765,�k�k��,5.6,��
2018/11/05,06:30,0.783,1.184,0.836,1.487,1.078,0.457,0.806,0.766,�k�k��,5.7,�L
2018/11/05,06:40,0.784,1.183,0.833,1.491,1.075,0.456,0.809,0.765,�k�k��,5.8,�L
2018/11/05,06:50,0.784,1.181,0.835,1.490,1.076,0.457,0.807,0.765,�k�k��,5.5,��
2018/11/05,07:00,0.783,1.180,0.833,1.488,1.076,0.456,0.804,0.764,�k�k��,4.9,��
2018/11/05,07:10,0.783,1.180,0.834,1.492,1.075,0.456,0.805,0.765,�k��,4.9,��
2018/11/05,07:20,0.785,1.181,0.832,1.490,1.075,0.456,0.805,0.767,�k�k��,5.4,�L
2018/11/05,07:30,0.783,1.181,0.834,1.490,1.074,0.458,0.806,0.767,�k�k��,5.3,�L
2018/11/05,07:40,0.783,1.184,0.833,1.492,1.074,0.457,0.805,0.765,�k�k��,5.0,��
2018/11/05,07:50,0.782,1.183,0.834,1.487,1.074,0.456,0.806,0.764,�k,4.5,��
2018/11/05,08:00,0.786,1.184,0.833,1.487,1.075,0.456,0.806,0.764,�k�k��,4.6,��
2018/11/05,08:10,0.782,1.185,0.834,1.489,1.073,0.457,0.806,0.764,�k�k��,4.6,��
2018/11/05,08:20,0.785,1.184,0.834,1.491,1.075,0.457,0.805,0.765,�k�k��,4.7,��
2018/11/05,08:30,0.782,1.183,0.834,1.488,1.076,0.457,0.805,0.766,�k�k��,4.2,��
2018/11/05,08:40,0.784,1.182,0.833,1.492,1.074,0.456,0.807,0.766,�k�k��,4.6,��
2018/11/05,08:50,0.785,1.180,0.834,1.488,1.076,0.456,0.804,0.765,�k�k��,4.0,��
2018/11/05,09:00,0.783,1.180,0.833,1.490,1.076,0.457,0.804,0.765,�k�k��,3.9,��
2018/11/05,09:10,0.783,1.182,0.833,1.492,1.073,0.457,0.804,0.764,�k,3.6,��
2018/11/05,09:20,0.784,1.182,0.832,1.487,1.074,0.457,0.804,0.765,�k�k��,3.7,��
2018/11/05,09:30,0.785,1.184,0.833,1.490,1.074,0.455,0.806,0.763,�k,2.9,��
2018/11/05,09:40,0.786,1.180,0.835,1.490,1.073,0.456,0.808,0.762,�k�k��,2.8,�L
2018/11/05,09:50,0.779,1.173,0.831,1.484,1.065,0.456,0.803,0.764,�k,2.6,�L
2018/11/05,10:00,0.778,1.176,0.830,1.482,1.064,0.456,0.805,0.762,�k�k��,2.3,�L
2018/11/05,10:10,0.778,1.170,0.829,1.480,1.065,0.456,0.807,0.762,�k�k��,3.6,�L
2018/11/05,10:20,0.779,1.167,0.831,1.481,1.066,0.455,0.806,0.763,�k�k��,2.5,��
2018/11/05,10:30,0.778,1.170,0.828,1.483,1.065,0.457,0.806,0.762,�k,2.3,��
2018/11/05,10:40,0.779,1.169,0.827,1.483,1.066,0.456,0.805,0.761,�k,2.0,��
2018/11/05,10:50,0.779,1.169,0.830,-,1.064,0.456,0.807,0.762,�k�k��,2.0,��
2018/11/05,11:00,0.778,1.173,0.829,-,1.065,0.456,0.805,0.763,�k,2.3,��
2018/11/05,11:10,0.780,1.172,0.830,-,1.068,0.457,0.808,0.762,�k,2.6,��
2018/11/05,11:20,0.778,1.172,0.829,-,1.066,0.454,0.807,0.763,�k�k��,2.6,��
2018/11/05,11:30,0.777,1.174,0.831,-,1.064,0.454,0.807,0.762,�k�k��,3.8,��
2018/11/05,11:40,0.775,1.173,0.830,-,1.068,0.455,0.807,0.762,�k�k��,3.6,��
2018/11/05,11:50,0.778,1.174,0.830,-,1.066,0.453,0.806,0.761,�k,3.6,��
2018/11/05,12:00,0.778,1.172,0.829,-,1.066,0.455,0.807,0.762,�k,4.0,��
2018/11/05,12:10,0.781,1.174,0.828,-,1.067,0.455,0.809,0.763,�k�k��,4.0,��
2018/11/05,12:20,0.779,1.177,0.830,-,1.067,0.455,0.808,0.765,�k�k��,3.5,��
2018/11/05,12:30,0.779,1.174,0.830,-,1.067,0.455,0.806,0.762,�k�k��,4.1,��
2018/11/05,12:40,0.779,1.177,0.830,-,1.066,0.453,0.807,0.762,�k,4.0,��
2018/11/05,12:50,0.780,1.174,0.830,-,1.068,0.454,0.809,0.762,�k,4.2,��
2018/11/05,13:00,0.779,1.174,0.828,-,1.066,0.454,0.808,0.764,�k,4.2,�L
2018/11/05,13:10,0.779,1.176,0.827,-,1.066,0.455,0.808,0.764,�k,3.2,�L
2018/11/05,13:20,0.780,1.174,0.828,-,1.068,0.454,0.808,0.762,�k,3.6,�L
2018/11/05,13:30,0.781,1.177,0.828,-,1.066,0.455,0.807,0.762,�k,3.9,�L
2018/11/05,13:40,0.781,1.174,0.829,-,1.072,0.455,0.808,0.763,�k,3.4,�L
2018/11/05,13:50,0.782,1.173,0.831,-,1.071,0.456,0.809,0.761,�k,3.0,��
2018/11/05,14:00,0.783,1.175,0.831,-,1.072,0.457,0.809,0.763,�k,2.3,��
2018/11/05,14:10,0.782,1.178,0.834,-,1.071,0.456,0.809,0.763,�k�k��,3.2,��
2018/11/05,14:20,0.782,1.179,0.833,-,1.073,0.456,0.809,0.765,�k,2.6,��
2018/11/05,14:30,0.782,1.178,0.832,-,1.071,0.458,0.810,0.765,�k,3.0,��
2018/11/05,14:40,0.781,1.178,0.834,-,1.072,0.456,0.809,0.764,�k,2.8,��
2018/11/05,14:50,0.782,1.176,0.832,-,1.072,0.456,0.808,0.764,�k,2.6,��
2018/11/05,15:00,0.782,1.176,0.833,-,1.072,0.455,0.809,0.762,�k,3.4,��
2018/11/05,15:10,0.781,1.180,0.833,-,1.075,0.455,0.807,0.763,�k,2.5,��
2018/11/05,15:20,0.781,1.179,0.832,1.486,1.073,0.457,0.808,0.763,�k,2.0,��
2018/11/05,15:30,0.782,1.180,0.831,1.486,1.072,0.457,0.808,0.762,�k,2.2,��
2018/11/05,15:40,0.782,1.178,0.834,1.488,1.072,0.456,0.810,0.762,�k,2.9,�L
2018/11/05,15:50,0.781,1.182,0.833,1.488,1.072,0.458,0.807,0.764,�k,2.6,��
2018/11/05,16:00,0.783,1.180,0.832,1.488,1.072,0.455,0.808,0.761,�k,2.3,��
2018/11/05,16:10,0.784,1.184,0.833,1.488,1.074,0.457,0.808,0.765,�k,2.6,��
2018/11/05,16:20,0.784,1.183,0.832,1.483,1.072,0.457,0.808,0.765,�k,2.9,��
2018/11/05,16:30,0.783,1.185,0.832,1.488,1.072,0.458,0.806,0.764,�k�k��,3.7,��
2018/11/05,16:40,0.784,1.186,0.833,1.487,1.074,0.455,0.808,0.764,�k�k��,2.3,��
2018/11/05,16:50,0.784,1.186,0.833,1.486,1.074,0.456,0.809,0.765,�k�k��,2.9,��
2018/11/05,17:00,0.784,1.185,0.835,1.487,1.072,0.457,0.806,0.766,�k�k��,2.8,��
2018/11/05,17:10,0.784,1.186,0.834,1.486,1.073,0.457,0.807,0.765,�k��,2.3,��
2018/11/05,17:20,0.785,1.184,0.833,1.488,1.072,0.457,0.809,0.768,�k��,2.6,��
2018/11/05,17:30,0.783,1.183,0.834,1.485,1.071,0.457,0.809,0.764,�k��,1.7,��
2018/11/05,17:40,0.783,1.188,0.832,1.491,1.072,0.457,0.808,0.764,���k��,1.9,��
2018/11/05,17:50,0.782,1.186,0.833,1.488,1.075,0.458,0.808,0.765,�k��,1.5,��
2018/11/05,18:00,0.784,1.185,0.834,1.487,1.074,0.457,0.809,0.766,�k��,2.2,��
2018/11/05,18:10,0.783,1.186,0.832,1.484,1.075,0.458,0.808,0.765,�k��,1.7,��
2018/11/05,18:20,0.784,1.186,0.833,1.486,1.074,0.457,0.809,0.766,���k��,2.0,��
2018/11/05,18:30,0.783,1.187,0.834,1.489,1.073,0.457,0.809,0.767,�k��,1.7,��
2018/11/05,18:40,0.785,1.184,0.835,1.488,1.075,0.458,0.809,0.767,�k��,0.8,��
2018/11/05,18:50,0.786,1.186,0.833,1.487,1.075,0.458,0.808,0.764,�k,0.8,��
2018/11/05,19:00,0.785,1.184,0.833,1.488,1.074,0.458,0.809,0.766,�k��,0.6,��
2018/11/05,19:10,0.782,1.187,0.833,1.488,1.074,0.457,0.810,0.766,�k��,1.7,��
2018/11/05,19:20,0.783,1.184,0.834,1.488,1.073,0.458,0.810,0.766,���k��,1.5,��
2018/11/05,19:30,0.781,1.183,0.834,1.490,1.074,0.458,0.807,0.766,���k��,1.7,��
2018/11/05,19:40,0.781,1.185,0.833,1.487,1.073,0.457,0.808,0.765,-,CALM,��
2018/11/05,19:50,0.783,1.183,0.834,1.487,1.072,0.458,0.808,0.765,���k��,0.9,��
2018/11/05,20:00,0.784,1.184,0.835,1.487,1.075,0.459,0.809,0.765,�k��,1.7,��
2018/11/05,20:10,0.783,1.183,0.832,1.486,1.074,0.458,0.810,0.764,���k��,1.2,��
2018/11/05,20:20,0.782,1.183,0.835,1.488,1.076,0.457,0.808,0.765,�k��,1.2,��
2018/11/05,20:30,0.785,1.186,0.832,1.489,1.072,0.458,0.809,0.766,���k��,1.2,��
2018/11/05,20:40,0.780,1.185,0.832,1.489,1.073,0.457,0.810,0.766,-,CALM,��
2018/11/05,20:50,0.783,1.183,0.833,1.487,1.074,0.458,0.811,0.765,�k��,1.2,��
2018/11/05,21:00,0.784,1.183,0.833,1.487,1.074,0.455,0.810,0.766,�k��,2.3,��
2018/11/05,21:10,0.783,1.185,0.831,1.488,1.075,0.456,0.808,0.765,�k��,2.0,��
2018/11/05,21:20,0.782,1.184,0.832,1.488,1.073,0.457,0.810,0.767,�k��,1.7,��
2018/11/05,21:30,0.782,1.185,0.832,1.487,1.074,0.457,0.809,0.764,�k�k��,2.0,��
2018/11/05,21:40,0.783,1.184,0.833,1.488,1.074,0.458,0.811,0.765,�k�k��,2.3,��
2018/11/05,21:50,0.783,1.183,0.835,1.490,1.073,0.459,0.809,0.764,�k�k��,2.2,��
2018/11/05,22:00,0.783,1.182,0.833,1.487,1.073,0.458,0.809,0.765,�k�k��,2.3,��
2018/11/05,22:10,0.783,1.186,0.831,1.488,1.074,0.458,0.809,0.764,�k�k��,2.5,��
2018/11/05,22:20,0.782,1.183,0.833,1.489,1.077,0.456,0.808,0.766,�k�k��,2.6,��
2018/11/05,22:30,0.783,1.185,0.833,1.488,1.073,0.457,0.809,0.765,�k,2.6,��
2018/11/05,22:40,0.784,1.185,0.832,1.488,1.074,0.458,0.810,0.766,�k,3.1,��
2018/11/05,22:50,0.785,1.184,0.834,1.485,1.073,0.456,0.809,0.765,�k,2.9,��
2018/11/05,23:00,0.784,1.186,0.833,1.491,1.074,0.458,0.808,0.764,�k�k��,3.0,��
2018/11/05,23:10,0.783,1.185,0.834,1.488,1.074,0.458,0.808,0.766,�k,2.8,��
2018/11/05,23:20,0.783,1.186,0.833,1.489,1.074,0.457,0.809,0.764,�k,3.5,��
2018/11/05,23:30,0.781,1.185,0.833,1.488,1.075,0.458,0.810,0.764,�k,2.9,��
2018/11/05,23:40,0.783,1.185,0.832,1.485,1.072,0.458,0.810,0.766,�k,2.5,��
2018/11/05,23:50,0.783,1.184,0.831,1.488,1.074,0.459,0.808,0.764,�k�k��,2.5,��
